Regional Weather Roundup
Issued by NWS

Home | Current Version | Previous Version | Text Only | Print | Product List | Glossary On
Versions: 1 2 3 4 5 6 7 8 9 10 11 12 13 14 15 16 17 18 19 20 21 22 23 24 25 26 27
000
ASCA42 TJSJ 310910
RWRPR
PUERTO RICO/U.S. VIRGIN ISLANDS HOURLY WEATHER ROUNDUP
NATIONAL WEATHER SERVICE SAN JUAN PR
500 AM AST TUE MAY 31 2016

PRZ001-004-311000-
PUERTO RICO

CITY           SKY/WX    TMP DP  RH WIND       PRES   REMARKS
SAN JUAN LMM   CLOUDY    79  77  94 CALM      29.94R
PONCE          CLOUDY    75  75 100 E6        29.91F
CEIBA          PTCLDY    81  75  83 E10       29.97R
$$

PRZ006-007-311000-
U.S. VIRGIN ISLANDS

CITY           SKY/WX    TMP DP  RH WIND       PRES   REMARKS
CHARLOTTE AMA  PTCLDY    82  75  78 E13       29.94S
CHRISTIANSTED  PTCLDY    81  75  83 E13       29.94S
$$

HOURLY WEATHER ROUNDUP FOR THE NEWS MEDIA

CITY           SKY/WX    TMP DP  RH WIND       PRES   REMARKS
ORLANDO        CLEAR     74  71  91 SW7       29.92S
NEW YORK       CLOUDY    66  65  96 CALM      29.94S
NEWARK         CLOUDY    72  68  87 W6        29.93R
CHICAGO        MOCLDY    66  55  67 SE3       29.98F
HARTFORD       LGT RAIN  66  65  96 SW7       29.91F
BOSTON         MOCLDY    70  66  87 SW10      29.89R
DALLAS         MOCLDY    76  66  71 S8        29.87F
PHILADELPHIA   CLOUDY    71  67  87 SW5       29.95S
LOS ANGELES    CLOUDY    59  55  87 W5        29.88F
WASHINGTON DC  CLOUDY    69  67  93 S5        29.96R



USA.gov is the U.S. government's official web portal to all federal, state and local government web resources and services.